,,PA_Meas_PMT16A,,PR_Meas_QMR101_102,,RH_Meas_QMH101,,SR_Meas_QMS101,,TA_Meas_QMH101,,GenWind,,GenWind,
time,status,PA,status,PR,status,RH,status,SR,status,TA,status,DirAvg,status,SpdAvg,
2010-12-22, 00:00:04,VALID,916.035,VALID,0,VALID,96.5963,VALID,0,VALID,17.8716,VALID,173,VALID,0.567969,
2010-12-22, 00:01:04,VALID,916.004,VALID,0,VALID,96.4743,VALID,0,VALID,17.8131,VALID,173,VALID,0.583594,
2010-12-22, 00:02:04,VALID,915.946,VALID,0,VALID,96.4133,VALID,0,VALID,17.7741,VALID,173,VALID,0.649609,
2010-12-22, 00:03:04,VALID,915.931,VALID,0,VALID,96.4133,VALID,0,VALID,17.7741,VALID,173,VALID,0.851563,
2010-12-22, 00:04:04,VALID,915.911,VALID,0,VALID,96.3447,VALID,0,VALID,17.7547,VALID,173,VALID,0.567969,
2010-12-22, 00:05:04,VALID,915.912,VALID,0,VALID,96.299,VALID,0,VALID,17.7352,VALID,173,VALID,1.00117,
2010-12-22, 00:06:04,VALID,915.926,VALID,0,VALID,96.1694,VALID,0,VALID,17.7157,VALID,173,VALID,1.0125,
2010-12-22, 00:07:04,VALID,915.907,VALID,0,VALID,96.0627,VALID,0,VALID,17.7157,VALID,173,VALID,1.01836,
2010-12-22, 00:08:04,VALID,915.917,VALID,0,VALID,95.9254,VALID,0,VALID,17.6767,VALID,173,VALID,0.729297,
2010-12-22, 00:09:04,VALID,915.866,VALID,0,VALID,95.8873,VALID,0,VALID,17.6377,VALID,173,VALID,1.17148,
2010-12-22, 00:10:04,VALID,915.861,VALID,0,VALID,96.0322,VALID,0,VALID,17.6572,VALID,129,VALID,1.41211,
2010-12-22, 00:11:04,VALID,915.808,VALID,0,VALID,96.2228,VALID,0,VALID,17.6767,VALID,129,VALID,1.04414,
2010-12-22, 00:12:04,VALID,915.81,VALID,0,VALID,96.3142,VALID,0,VALID,17.6767,VALID,129,VALID,0.875,
2010-12-22, 00:13:04,VALID,915.773,VALID,0,VALID,96.3371,VALID,0,VALID,17.6767,VALID,129,VALID,0.694531,
2010-12-22, 00:14:04,VALID,915.738,VALID,0,VALID,96.3905,VALID,0,VALID,17.6377,VALID,129,VALID,0.844141,
2010-12-22, 00:15:04,VALID,915.708,VALID,0,VALID,96.4515,VALID,0,VALID,17.6169,VALID,129,VALID,0.713672,
2010-12-22, 00:16:04,VALID,915.697,VALID,0,VALID,96.4515,VALID,0,VALID,17.5974,VALID,129,VALID,1.07734,
2010-12-22, 00:17:04,VALID,915.692,VALID,0,VALID,96.4972,VALID,0,VALID,17.6182,VALID,129,VALID,1.3543,
2010-12-22, 00:18:04,VALID,915.676,VALID,0,VALID,96.5277,VALID,0,VALID,17.5974,VALID,129,VALID,0.997266,
2010-12-22, 00:19:04,VALID,915.658,VALID,0,VALID,96.4743,VALID,0,VALID,17.5987,VALID,129,VALID,1.07422,
2010-12-22, 00:20:04,VALID,915.651,VALID,0,VALID,96.4743,VALID,0,VALID,17.5987,VALID,129,VALID,1.23477,
2010-12-22, 00:21:04,VALID,915.676,VALID,0,VALID,96.4133,VALID,0,VALID,17.5779,VALID,129,VALID,1.01953,
2010-12-22, 00:22:04,VALID,915.652,VALID,0,VALID,96.3524,VALID,0,VALID,17.5792,VALID,130,VALID,1.11328,
2010-12-22, 00:23:04,VALID,915.621,VALID,0,VALID,96.2761,VALID,0,VALID,17.5598,VALID,129,VALID,1.09648,
2010-12-22, 00:24:04,VALID,915.639,VALID,0,VALID,96.2304,VALID,0,VALID,17.5194,VALID,129,VALID,1.32266,
2010-12-22, 00:25:04,VALID,915.612,VALID,0,VALID,96.2304,VALID,0,VALID,17.5389,VALID,130,VALID,0.964453,
2010-12-22, 00:26:04,VALID,915.589,VALID,0,VALID,96.177,VALID,0.107441,VALID,17.5194,VALID,130,VALID,1.2832,
2010-12-22, 00:27:04,VALID,915.586,VALID,0,VALID,96.1313,VALID,0,VALID,17.5,VALID,130,VALID,1.14141,
2010-12-22, 00:28:04,VALID,915.547,VALID,0,VALID,96.1008,VALID,0,VALID,17.5,VALID,130,VALID,1.06641,
2010-12-22, 00:29:04,VALID,915.549,VALID,0,VALID,96.0017,VALID,0,VALID,17.5,VALID,130,VALID,1.0832,
2010-12-22, 00:30:04,VALID,915.512,VALID,0,VALID,95.9941,VALID,0,VALID,17.4805,VALID,130,VALID,1.0168,
2010-12-22, 00:31:04,VALID,915.482,VALID,0,VALID,95.9331,VALID,0,VALID,17.5013,VALID,129,VALID,1.10938,
2010-12-22, 00:32:04,VALID,915.441,VALID,0,VALID,95.9178,VALID,0,VALID,17.461,VALID,130,VALID,0.894531,
2010-12-22, 00:33:04,VALID,915.445,VALID,0,VALID,95.9026,VALID,0,VALID,17.4415,VALID,130,VALID,0.666406,
2010-12-22, 00:34:04,VALID,915.43,VALID,0,VALID,95.8721,VALID,0,VALID,17.422,VALID,136,VALID,0.980078,
2010-12-22, 00:35:04,VALID,915.422,VALID,0,VALID,95.834,VALID,0,VALID,17.422,VALID,148,VALID,0.633203,
2010-12-22, 00:36:04,VALID,915.424,VALID,0,VALID,95.7501,VALID,0,VALID,17.4025,VALID,148,VALID,0.783594,
2010-12-22, 00:37:04,VALID,915.378,VALID,0,VALID,95.7501,VALID,0.107441,VALID,17.4025,VALID,148,VALID,0.879687,
2010-12-22, 00:38:04,VALID,915.36,VALID,0,VALID,95.7272,VALID,0,VALID,17.383,VALID,148,VALID,0.652734,
2010-12-22, 00:39:04,VALID,915.34,VALID,0,VALID,95.7272,VALID,0,VALID,17.3441,VALID,148,VALID,0.791797,
2010-12-22, 00:40:04,VALID,915.323,VALID,0,VALID,95.651,VALID,0.107441,VALID,17.3246,VALID,148,VALID,0.496875,
2010-12-22, 00:41:04,VALID,915.349,VALID,0,VALID,95.6739,VALID,0,VALID,17.3441,VALID,148,VALID,0.958203,
2010-12-22, 00:42:04,VALID,915.343,VALID,0,VALID,95.7196,VALID,0,VALID,17.3259,VALID,148,VALID,1.08164,
2010-12-22, 00:43:04,VALID,915.33,VALID,0,VALID,95.8721,VALID,0,VALID,17.2856,VALID,148,VALID,1.24297,
2010-12-22, 00:44:04,VALID,915.313,VALID,0,VALID,96.055,VALID,0,VALID,17.2661,VALID,147,VALID,1.0543,
2010-12-22, 00:45:04,VALID,915.315,VALID,0,VALID,96.2075,VALID,0.107441,VALID,17.2661,VALID,131,VALID,0.942969,
2010-12-22, 00:46:04,VALID,915.291,VALID,0,VALID,96.2533,VALID,0,VALID,17.2077,VALID,131,VALID,0.829687,
2010-12-22, 00:47:04,VALID,915.252,VALID,0,VALID,96.3447,VALID,0,VALID,17.2285,VALID,131,VALID,0.798828,
2010-12-22, 00:48:04,VALID,915.24,VALID,0,VALID,96.4896,VALID,0,VALID,17.2466,VALID,131,VALID,1.12734,
2010-12-22, 00:49:04,VALID,915.2,VALID,0,VALID,96.4057,VALID,0,VALID,17.2285,VALID,131,VALID,0.762109,
2010-12-22, 00:50:04,VALID,915.126,VALID,0,VALID,96.4667,VALID,0,VALID,17.2077,VALID,131,VALID,1.00234,
2010-12-22, 00:51:04,VALID,915.095,VALID,0,VALID,96.4286,VALID,0,VALID,17.209,VALID,131,VALID,0.688672,
2010-12-22, 00:52:04,VALID,915.047,VALID,0,VALID,96.3829,VALID,0,VALID,17.1895,VALID,131,VALID,0.580078,
2010-12-22, 00:53:04,VALID,915.066,VALID,0,VALID,96.3371,VALID,0.107441,VALID,17.1492,VALID,161,VALID,1.06289,
2010-12-22, 00:54:04,VALID,915.03,VALID,0,VALID,96.2837,VALID,0,VALID,17.1102,VALID,161,VALID,1.24141,
2010-12-22, 00:55:04,VALID,915.059,VALID,0,VALID,96.2685,VALID,0,VALID,17.131,VALID,155,VALID,1.02969,
2010-12-22, 00:56:04,VALID,914.988,VALID,0,VALID,96.2914,VALID,0,VALID,17.1505,VALID,148,VALID,0.792969,
2010-12-22, 00:57:04,VALID,915.024,VALID,0,VALID,96.177,VALID,0,VALID,17.131,VALID,148,VALID,0.716797,
2010-12-22, 00:58:04,VALID,914.969,VALID,0,VALID,96.1389,VALID,0,VALID,17.131,VALID,148,VALID,0.977344,
2010-12-22, 00:59:04,VALID,914.967,VALID,0,VALID,96.1541,VALID,0,VALID,17.131,VALID,144,VALID,0.966016,
2010-12-22, 01:00:04,VALID,914.986,VALID,0,VALID,95.9636,VALID,0,VALID,17.0907,VALID,132,VALID,0.823438,
2010-12-22, 01:01:04,VALID,914.978,VALID,0,VALID,95.8187,VALID,0.107441,VALID,17.0713,VALID,132,VALID,1.08047,
2010-12-22, 01:02:04,VALID,915.007,VALID,0,VALID,95.7577,VALID,0,VALID,17.0713,VALID,132,VALID,0.904297,
2010-12-22, 01:03:04,VALID,915.004,VALID,0,VALID,95.6739,VALID,0,VALID,17.092,VALID,132,VALID,1.1168,
2010-12-22, 01:04:04,VALID,915.037,VALID,0,VALID,95.4223,VALID,0.107441,VALID,17.0907,VALID,132,VALID,1.39453,
2010-12-22, 01:05:04,VALID,915.054,VALID,0,VALID,95.2927,VALID,0,VALID,17.1297,VALID,106,VALID,1.58398,
2010-12-22, 01:06:04,VALID,915.03,VALID,0,VALID,95.1707,VALID,0,VALID,17.1492,VALID,104,VALID,1.02344,
2010-12-22, 01:07:04,VALID,915.013,VALID,0,VALID,94.9801,VALID,0,VALID,17.1505,VALID,93,VALID,0.796484,
2010-12-22, 01:08:04,VALID,914.981,VALID,0,VALID,94.7362,VALID,0,VALID,17.0713,VALID,93,VALID,0.824219,
2010-12-22, 01:09:04,VALID,915.024,VALID,0,VALID,94.8582,VALID,0.107441,VALID,17.0323,VALID,93,VALID,0.521484,
2010-12-22, 01:10:04,VALID,915.011,VALID,0,VALID,95.1097,VALID,0,VALID,17.0323,VALID,93,VALID,0.675,
2010-12-22, 01:11:04,VALID,914.986,VALID,0,VALID,95.1479,VALID,0,VALID,17.0336,VALID,93,VALID,0.555078,
2010-12-22, 01:12:04,VALID,914.984,VALID,0,VALID,95.1936,VALID,0,VALID,16.9933,VALID,93,VALID,0.443359,
2010-12-22, 01:13:04,VALID,914.964,VALID,0,VALID,95.1479,VALID,0.107441,VALID,16.9946,VALID,93,VALID,0.439063,
2010-12-22, 01:14:04,VALID,914.942,VALID,0,VALID,94.82,VALID,0,VALID,16.9362,VALID,93,VALID,0.301562,
2010-12-22, 01:15:04,VALID,914.947,VALID,0,VALID,94.1797,VALID,0,VALID,16.8387,VALID,93,VALID,0.651563,
2010-12-22, 01:16:04,VALID,914.935,VALID,0,VALID,94.4999,VALID,0,VALID,16.7803,VALID,93,VALID,0.651172,
2010-12-22, 01:17:04,VALID,914.909,VALID,0,VALID,95.0716,VALID,0,VALID,16.7608,VALID,93,VALID,0.713281,
2010-12-22, 01:18:04,VALID,914.915,VALID,0,VALID,95.2927,VALID,0,VALID,16.7413,VALID,93,VALID,0.448828,
2010-12-22, 01:19:04,VALID,914.897,VALID,0,VALID,95.5214,VALID,0,VALID,16.7413,VALID,93,VALID,0.551562,
2010-12-22, 01:20:04,VALID,914.882,VALID,0,VALID,95.6129,VALID,0,VALID,16.7218,VALID,93,VALID,0.339844,
2010-12-22, 01:21:04,VALID,914.913,VALID,0,VALID,95.6434,VALID,0,VALID,16.7218,VALID,93,VALID,0.16875,
2010-12-22, 01:22:04,VALID,914.883,VALID,0,VALID,95.7196,VALID,0,VALID,16.7413,VALID,93,VALID,0.194922,
2010-12-22, 01:23:04,VALID,914.882,VALID,0,VALID,95.6053,VALID,0.107441,VALID,16.7205,VALID,93,VALID,0.421875,
2010-12-22, 01:24:04,VALID,914.841,VALID,0,VALID,95.6891,VALID,0,VALID,16.7205,VALID,93,VALID,0.684375,
2010-12-22, 01:25:04,VALID,914.796,VALID,0,VALID,95.7882,VALID,0,VALID,16.7595,VALID,93,VALID,0.642187,
2010-12-22, 01:26:04,VALID,914.791,VALID,0,VALID,95.8797,VALID,0,VALID,16.7998,VALID,93,VALID,0.679297,
2010-12-22, 01:27:04,VALID,914.778,VALID,0,VALID,95.9559,VALID,0,VALID,16.8387,VALID,93,VALID,0.437109,
2010-12-22, 01:28:04,VALID,914.812,VALID,0,VALID,95.9483,VALID,0,VALID,16.8192,VALID,93,VALID,0.214844,
2010-12-22, 01:29:04,VALID,914.79,VALID,0,VALID,95.8721,VALID,0.107441,VALID,16.8192,VALID,93,VALID,0.470703,
2010-12-22, 01:30:04,VALID,914.804,VALID,0,VALID,95.895,VALID,0,VALID,16.8387,VALID,93,VALID,0.410937,
2010-12-22, 01:31:04,VALID,914.768,VALID,0,VALID,95.7958,VALID,0,VALID,16.8192,VALID,93,VALID,0.629687,
2010-12-22, 01:32:04,VALID,914.781,VALID,0,VALID,95.8797,VALID,0,VALID,16.8192,VALID,94,VALID,1.05195,
2010-12-22, 01:33:04,VALID,914.765,VALID,0,VALID,95.9788,VALID,0,VALID,16.818,VALID,143,VALID,0.796875,
2010-12-22, 01:34:04,VALID,914.758,VALID,0,VALID,96.0398,VALID,0,VALID,16.7998,VALID,143,VALID,1.16367,
2010-12-22, 01:35:04,VALID,914.771,VALID,0,VALID,96.0779,VALID,0,VALID,16.7998,VALID,143,VALID,0.878516,
2010-12-22, 01:36:04,VALID,914.771,VALID,0,VALID,96.1389,VALID,0,VALID,16.8192,VALID,143,VALID,1.07578,
2010-12-22, 01:37:04,VALID,914.764,VALID,0,VALID,96.116,VALID,0,VALID,16.8387,VALID,143,VALID,0.324609,
2010-12-22, 01:38:04,VALID,914.743,VALID,0,VALID,96.0932,VALID,0,VALID,16.8374,VALID,143,VALID,0.747656,
2010-12-22, 01:39:04,VALID,914.765,VALID,0,VALID,95.9559,VALID,0,VALID,16.8569,VALID,143,VALID,1.06172,
2010-12-22, 01:40:04,VALID,914.77,VALID,0,VALID,95.8263,VALID,0,VALID,16.8972,VALID,143,VALID,1.14922,
2010-12-22, 01:41:04,VALID,914.765,VALID,0,VALID,95.651,VALID,0,VALID,16.9167,VALID,143,VALID,1.30156,
2010-12-22, 01:42:04,VALID,914.75,VALID,0,VALID,95.3156,VALID,0,VALID,16.9362,VALID,143,VALID,1.17813,
2010-12-22, 01:43:04,VALID,914.739,VALID,0,VALID,94.9801,VALID,0,VALID,16.9569,VALID,142,VALID,1.09023,
2010-12-22, 01:44:04,VALID,914.726,VALID,0,VALID,94.6142,VALID,0,VALID,16.9556,VALID,120,VALID,1.16523,
2010-12-22, 01:45:04,VALID,914.764,VALID,0,VALID,94.3703,VALID,0,VALID,16.9946,VALID,120,VALID,1.08984,
2010-12-22, 01:46:04,VALID,914.762,VALID,0,VALID,94.1568,VALID,0,VALID,16.9946,VALID,120,VALID,1.01914,
2010-12-22, 01:47:04,VALID,914.729,VALID,0,VALID,94.0653,VALID,0,VALID,16.9946,VALID,120,VALID,0.940234,
2010-12-22, 01:48:04,VALID,914.728,VALID,0,VALID,94.0958,VALID,0,VALID,16.9751,VALID,119,VALID,0.908203,
2010-12-22, 01:49:04,VALID,914.711,VALID,0,VALID,94.1644,VALID,0,VALID,16.9946,VALID,120,VALID,0.977734,
2010-12-22, 01:50:04,VALID,914.722,VALID,0,VALID,94.073,VALID,0,VALID,16.9751,VALID,120,VALID,0.902344,
2010-12-22, 01:51:04,VALID,914.713,VALID,0,VALID,93.9434,VALID,0,VALID,16.9362,VALID,120,VALID,0.757422,
2010-12-22, 01:52:04,VALID,914.716,VALID,0,VALID,93.8061,VALID,0,VALID,16.8972,VALID,120,VALID,0.601563,
2010-12-22, 01:53:04,VALID,914.718,VALID,0,VALID,94.0272,VALID,0,VALID,16.8972,VALID,143,VALID,1.15391,
2010-12-22, 01:54:04,VALID,914.763,VALID,0,VALID,94.0806,VALID,0,VALID,16.8764,VALID,145,VALID,0.659766,
2010-12-22, 01:55:04,VALID,914.754,VALID,0,VALID,94.2559,VALID,0,VALID,16.9167,VALID,145,VALID,1.26289,
2010-12-22, 01:56:04,VALID,914.725,VALID,0,VALID,94.3398,VALID,0,VALID,16.9167,VALID,145,VALID,0.923828,
2010-12-22, 01:57:04,VALID,914.746,VALID,0,VALID,94.8048,VALID,0,VALID,16.8972,VALID,156,VALID,0.86875,
2010-12-22, 01:58:04,VALID,914.712,VALID,0,VALID,95.1631,VALID,0,VALID,16.8777,VALID,156,VALID,1.00937,
2010-12-22, 01:59:04,VALID,914.673,VALID,0,VALID,95.4071,VALID,0,VALID,16.8387,VALID,156,VALID,0.991016,
2010-12-22, 02:00:04,VALID,914.647,VALID,0,VALID,95.6205,VALID,0,VALID,16.7998,VALID,156,VALID,0.830469,
2010-12-22, 02:01:04,VALID,914.652,VALID,0,VALID,95.7958,VALID,0,VALID,16.7998,VALID,156,VALID,0.971094,
2010-12-22, 02:02:04,VALID,914.65,VALID,0,VALID,95.9712,VALID,0,VALID,16.8192,VALID,156,VALID,0.986328,
2010-12-22, 02:03:04,VALID,914.63,VALID,0,VALID,96.0703,VALID,0,VALID,16.7803,VALID,156,VALID,0.919922,
2010-12-22, 02:04:04,VALID,914.636,VALID,0,VALID,96.1465,VALID,0,VALID,16.7608,VALID,156,VALID,0.690625,
2010-12-22, 02:05:04,VALID,914.629,VALID,0,VALID,96.238,VALID,0.107441,VALID,16.7413,VALID,156,VALID,0.699609,
2010-12-22, 02:06:04,VALID,914.61,VALID,0,VALID,96.3371,VALID,0,VALID,16.7413,VALID,156,VALID,0.896875,
2010-12-22, 02:07:04,VALID,914.604,VALID,0,VALID,96.421,VALID,0,VALID,16.7413,VALID,156,VALID,0.528516,
2010-12-22, 02:08:04,VALID,914.588,VALID,0,VALID,96.4896,VALID,0,VALID,16.7413,VALID,156,VALID,0.753906,
2010-12-22, 02:09:04,VALID,914.582,VALID,0,VALID,96.5048,VALID,0,VALID,16.7413,VALID,156,VALID,0.647266,
2010-12-22, 02:10:04,VALID,914.59,VALID,0,VALID,96.5124,VALID,0,VALID,16.7608,VALID,156,VALID,0.912109,
2010-12-22, 02:11:04,VALID,914.629,VALID,0,VALID,96.4743,VALID,0,VALID,16.779,VALID,156,VALID,0.730859,
2010-12-22, 02:12:04,VALID,914.608,VALID,0,VALID,96.3524,VALID,0,VALID,16.8192,VALID,155,VALID,0.962891,
2010-12-22, 02:13:04,VALID,914.655,VALID,0,VALID,96.1846,VALID,0,VALID,16.8777,VALID,156,VALID,1.08672,
2010-12-22, 02:14:04,VALID,914.638,VALID,0,VALID,95.9102,VALID,0,VALID,16.9167,VALID,155,VALID,0.857422,
2010-12-22, 02:15:04,VALID,914.636,VALID,0,VALID,95.4604,VALID,0,VALID,16.9751,VALID,154,VALID,1.01992,
2010-12-22, 02:16:04,VALID,914.679,VALID,0,VALID,94.881,VALID,0,VALID,17.0349,VALID,147,VALID,1.08086,
2010-12-22, 02:17:04,VALID,914.647,VALID,0,VALID,94.3474,VALID,0,VALID,17.0531,VALID,147,VALID,0.832422,
2010-12-22, 02:18:04,VALID,914.668,VALID,0,VALID,93.89,VALID,0,VALID,17.0531,VALID,147,VALID,0.945703,
2010-12-22, 02:19:04,VALID,914.657,VALID,0,VALID,93.8519,VALID,0,VALID,17.0726,VALID,147,VALID,0.957031,
2010-12-22, 02:20:04,VALID,914.701,VALID,0,VALID,93.829,VALID,0,VALID,17.0531,VALID,147,VALID,0.695313,
2010-12-22, 02:21:04,VALID,914.706,VALID,0,VALID,94.1339,VALID,0,VALID,17.0141,VALID,147,VALID,0.896094,
2010-12-22, 02:22:04,VALID,914.685,VALID,0,VALID,94.5151,VALID,0.107441,VALID,16.9946,VALID,147,VALID,1.16094,
2010-12-22, 02:23:04,VALID,914.72,VALID,0,VALID,94.7057,VALID,0,VALID,16.9556,VALID,147,VALID,0.898047,
2010-12-22, 02:24:04,VALID,914.711,VALID,0,VALID,94.8277,VALID,0,VALID,16.9167,VALID,147,VALID,0.433594,
2010-12-22, 02:25:04,VALID,914.691,VALID,0,VALID,94.8429,VALID,0,VALID,16.8972,VALID,147,VALID,0.878906,
2010-12-22, 02:26:04,VALID,914.657,VALID,0,VALID,94.8353,VALID,0,VALID,16.8959,VALID,147,VALID,0.823047,
2010-12-22, 02:27:04,VALID,914.657,VALID,0,VALID,94.7438,VALID,0,VALID,16.8972,VALID,147,VALID,0.947266,
2010-12-22, 02:28:04,VALID,914.627,VALID,0,VALID,94.5837,VALID,0,VALID,16.8972,VALID,147,VALID,0.844531,
2010-12-22, 02:29:04,VALID,914.651,VALID,0,VALID,94.4236,VALID,0,VALID,16.8972,VALID,147,VALID,1.10391,
2010-12-22, 02:30:04,VALID,914.655,VALID,0,VALID,94.2788,VALID,0,VALID,16.8972,VALID,147,VALID,0.521484,
2010-12-22, 02:31:04,VALID,914.615,VALID,0,VALID,94.1416,VALID,0,VALID,16.8764,VALID,147,VALID,0.486719,
2010-12-22, 02:32:04,VALID,914.6,VALID,0,VALID,94.0272,VALID,0,VALID,16.8972,VALID,147,VALID,0.60625,
2010-12-22, 02:33:04,VALID,914.577,VALID,0,VALID,93.8595,VALID,0,VALID,16.8985,VALID,147,VALID,0.525781,
2010-12-22, 02:34:04,VALID,914.584,VALID,0,VALID,93.5469,VALID,0,VALID,16.9167,VALID,147,VALID,0.601172,
2010-12-22, 02:35:04,VALID,914.603,VALID,0,VALID,93.0667,VALID,0,VALID,16.8972,VALID,147,VALID,0.673047,
2010-12-22, 02:36:04,VALID,914.572,VALID,0,VALID,92.7846,VALID,0,VALID,16.8972,VALID,147,VALID,0.609766,
2010-12-22, 02:37:04,VALID,914.562,VALID,0,VALID,92.5559,VALID,0,VALID,16.8777,VALID,147,VALID,0.729297,
2010-12-22, 02:38:04,VALID,914.579,VALID,0,VALID,92.2814,VALID,0,VALID,16.8387,VALID,147,VALID,0.943359,
2010-12-22, 02:39:04,VALID,914.542,VALID,0,VALID,92.0985,VALID,0,VALID,16.8387,VALID,147,VALID,1.10469,
2010-12-22, 02:40:04,VALID,914.521,VALID,0,VALID,91.9003,VALID,0,VALID,16.8582,VALID,147,VALID,1,
2010-12-22, 02:41:04,VALID,914.517,VALID,0,VALID,91.7935,VALID,0,VALID,16.8582,VALID,147,VALID,0.813281,
2010-12-22, 02:42:04,VALID,914.497,VALID,0,VALID,91.7554,VALID,0,VALID,16.8582,VALID,147,VALID,0.841016,
2010-12-22, 02:43:04,VALID,914.477,VALID,0,VALID,91.7402,VALID,0,VALID,16.8582,VALID,147,VALID,0.61875,
2010-12-22, 02:44:04,VALID,914.476,VALID,0,VALID,91.7249,VALID,0,VALID,16.8582,VALID,147,VALID,0.678516,
2010-12-22, 02:45:04,VALID,914.476,VALID,0,VALID,91.7631,VALID,0,VALID,16.8192,VALID,147,VALID,0.825,
2010-12-22, 02:46:04,VALID,914.479,VALID,0,VALID,91.9231,VALID,0,VALID,16.7998,VALID,147,VALID,0.787891,
2010-12-22, 02:47:04,VALID,914.458,VALID,0,VALID,92.0909,VALID,0,VALID,16.7803,VALID,147,VALID,0.780469,
2010-12-22, 02:48:04,VALID,914.455,VALID,0,VALID,92.2205,VALID,0,VALID,16.7608,VALID,147,VALID,0.746875,
2010-12-22, 02:49:04,VALID,914.45,VALID,0,VALID,92.4339,VALID,0,VALID,16.801,VALID,147,VALID,1.03984,
2010-12-22, 02:50:04,VALID,914.405,VALID,0,VALID,92.3729,VALID,0,VALID,16.7998,VALID,147,VALID,0.775781,
2010-12-22, 02:51:04,VALID,914.414,VALID,0,VALID,92.4034,VALID,0,VALID,16.7998,VALID,147,VALID,0.450781,
2010-12-22, 02:52:04,VALID,914.43,VALID,0,VALID,92.533,VALID,0,VALID,16.8192,VALID,147,VALID,0.675781,
2010-12-22, 02:53:04,VALID,914.407,VALID,0,VALID,92.4568,VALID,0,VALID,16.779,VALID,147,VALID,0.691797,
2010-12-22, 02:54:04,VALID,914.379,VALID,0,VALID,92.6016,VALID,0,VALID,16.7803,VALID,147,VALID,0.972656,
2010-12-22, 02:55:04,VALID,914.392,VALID,0,VALID,92.7693,VALID,0,VALID,16.7413,VALID,147,VALID,1.04258,
2010-12-22, 02:56:04,VALID,914.378,VALID,0,VALID,93.1734,VALID,0,VALID,16.7218,VALID,147,VALID,1.1332,
2010-12-22, 02:57:04,VALID,914.372,VALID,0,VALID,93.6232,VALID,0,VALID,16.6828,VALID,147,VALID,0.998438,
2010-12-22, 02:58:04,VALID,914.364,VALID,0,VALID,93.7909,VALID,0,VALID,16.6439,VALID,147,VALID,0.857813,
2010-12-22, 02:59:04,VALID,914.357,VALID,0,VALID,93.9891,VALID,0,VALID,16.6439,VALID,147,VALID,0.859375,
2010-12-22, 03:00:04,VALID,914.341,VALID,0,VALID,94.0958,VALID,0,VALID,16.6439,VALID,147,VALID,0.626953,
2010-12-22, 03:01:04,VALID,914.338,VALID,0,VALID,94.0958,VALID,0,VALID,16.6231,VALID,147,VALID,0.427734,
2010-12-22, 03:02:04,VALID,914.309,VALID,0,VALID,94.0501,VALID,0,VALID,16.6634,VALID,147,VALID,0.657422,
2010-12-22, 03:03:04,VALID,914.325,VALID,0,VALID,94.012,VALID,0,VALID,16.6828,VALID,147,VALID,0.411328,
2010-12-22, 03:04:04,VALID,914.293,VALID,0,VALID,93.8061,VALID,0,VALID,16.6828,VALID,147,VALID,0.68125,
2010-12-22, 03:05:04,VALID,914.33,VALID,0,VALID,93.6003,VALID,0,VALID,16.7218,VALID,147,VALID,0.675781,
2010-12-22, 03:06:04,VALID,914.276,VALID,0,VALID,93.3716,VALID,0,VALID,16.7803,VALID,147,VALID,0.572656,
2010-12-22, 03:07:04,VALID,914.289,VALID,0,VALID,93.1658,VALID,0,VALID,16.7998,VALID,147,VALID,0.603906,
2010-12-22, 03:08:04,VALID,914.284,VALID,0,VALID,92.8456,VALID,0,VALID,16.8192,VALID,147,VALID,0.662109,
2010-12-22, 03:09:04,VALID,914.286,VALID,0,VALID,92.6626,VALID,0,VALID,16.818,VALID,147,VALID,0.713281,
2010-12-22, 03:10:04,VALID,914.279,VALID,0,VALID,92.3348,VALID,0,VALID,16.8582,VALID,147,VALID,0.716406,
2010-12-22, 03:11:04,VALID,914.223,VALID,0,VALID,92.0756,VALID,0,VALID,16.8777,VALID,147,VALID,0.659375,
2010-12-22, 03:12:04,VALID,914.226,VALID,0,VALID,91.9384,VALID,0,VALID,16.8569,VALID,147,VALID,0.473437,
2010-12-22, 03:13:04,VALID,914.208,VALID,0,VALID,91.8393,VALID,0,VALID,16.8582,VALID,147,VALID,0.743359,
2010-12-22, 03:14:04,VALID,914.193,VALID,0,VALID,91.8012,VALID,0,VALID,16.8387,VALID,147,VALID,0.660156,
2010-12-22, 03:15:04,VALID,914.189,VALID,0,VALID,91.7173,VALID,0,VALID,16.8192,VALID,147,VALID,0.853516,
2010-12-22, 03:16:04,VALID,914.179,VALID,0,VALID,91.6411,VALID,0,VALID,16.8192,VALID,147,VALID,0.789063,
2010-12-22, 03:17:04,VALID,914.179,VALID,0,VALID,91.603,VALID,0,VALID,16.7998,VALID,147,VALID,0.865625,
2010-12-22, 03:18:04,VALID,914.172,VALID,0,VALID,91.5877,VALID,0,VALID,16.7998,VALID,147,VALID,0.803906,
2010-12-22, 03:19:04,VALID,914.2,VALID,0,VALID,91.5572,VALID,0,VALID,16.8582,VALID,147,VALID,0.614453,
2010-12-22, 03:20:04,VALID,914.206,VALID,0,VALID,91.42,VALID,0,VALID,16.8582,VALID,147,VALID,1.0168,
2010-12-22, 03:21:04,VALID,914.215,VALID,0,VALID,91.1227,VALID,0,VALID,16.8972,VALID,147,VALID,1.09023,
2010-12-22, 03:22:04,VALID,914.227,VALID,0,VALID,90.5738,VALID,0,VALID,16.8777,VALID,147,VALID,1.12578,
2010-12-22, 03:23:04,VALID,914.208,VALID,0,VALID,90.4747,VALID,0,VALID,16.8972,VALID,147,VALID,0.905078,
2010-12-22, 03:24:04,VALID,914.188,VALID,0,VALID,90.5281,VALID,0,VALID,16.8972,VALID,147,VALID,0.950391,
2010-12-22, 03:25:04,VALID,914.219,VALID,0,VALID,90.772,VALID,0,VALID,16.8777,VALID,147,VALID,0.564844,
2010-12-22, 03:26:04,VALID,914.23,VALID,0,VALID,91.1074,VALID,0,VALID,16.8387,VALID,147,VALID,0.578516,
2010-12-22, 03:27:04,VALID,914.247,VALID,0,VALID,91.4886,VALID,0,VALID,16.7998,VALID,147,VALID,0.423438,
2010-12-22, 03:28:04,VALID,914.223,VALID,0,VALID,91.8545,VALID,0,VALID,16.7803,VALID,147,VALID,0.253906,
2010-12-22, 03:29:04,VALID,914.261,VALID,0,VALID,92.1747,VALID,0,VALID,16.7218,VALID,147,VALID,0.391406,
2010-12-22, 03:30:04,VALID,914.258,VALID,0,VALID,92.4873,VALID,0,VALID,16.6439,VALID,147,VALID,0.442969,
2010-12-22, 03:31:04,VALID,914.239,VALID,0,VALID,92.8913,VALID,0,VALID,16.6049,VALID,147,VALID,0.650781,
2010-12-22, 03:32:04,VALID,914.251,VALID,0,VALID,93.1429,VALID,0,VALID,16.5854,VALID,147,VALID,0.741797,
2010-12-22, 03:33:04,VALID,914.208,VALID,0,VALID,93.3792,VALID,0,VALID,16.5465,VALID,147,VALID,0.637109,
2010-12-22, 03:34:04,VALID,914.246,VALID,0,VALID,93.6613,VALID,0,VALID,16.5659,VALID,147,VALID,0.924219,
2010-12-22, 03:35:04,VALID,914.241,VALID,0,VALID,93.7147,VALID,0,VALID,16.5659,VALID,147,VALID,0.722266,
2010-12-22, 03:36:04,VALID,914.229,VALID,0,VALID,93.8366,VALID,0,VALID,16.5659,VALID,147,VALID,0.525,
2010-12-22, 03:37:04,VALID,914.223,VALID,0,VALID,93.9434,VALID,0,VALID,16.5854,VALID,147,VALID,0.811719,
2010-12-22, 03:38:04,VALID,914.236,VALID,0,VALID,93.9357,VALID,0,VALID,16.5659,VALID,148,VALID,0.734766,
2010-12-22, 03:39:04,VALID,914.24,VALID,0,VALID,93.9586,VALID,0,VALID,16.5854,VALID,148,VALID,1.01133,
2010-12-22, 03:40:04,VALID,914.247,VALID,0,VALID,93.9434,VALID,0,VALID,16.6244,VALID,148,VALID,0.95625,
2010-12-22, 03:41:04,VALID,914.209,VALID,0,VALID,93.7604,VALID,0,VALID,16.6439,VALID,148,VALID,1.14492,
2010-12-22, 03:42:04,VALID,914.203,VALID,0,VALID,93.5698,VALID,0,VALID,16.6634,VALID,148,VALID,0.851563,
2010-12-22, 03:43:04,VALID,914.185,VALID,0,VALID,93.3792,VALID,0,VALID,16.6841,VALID,148,VALID,0.835547,
2010-12-22, 03:44:04,VALID,914.157,VALID,0,VALID,93.2268,VALID,0,VALID,16.7023,VALID,148,VALID,0.982422,